TimeEEST,TemperatureF,Dew PointF,Humidity,Sea Level PressureIn,VisibilityMPH,Wind Direction,Wind SpeedMPH,Gust SpeedMPH,PrecipitationIn,Events,Conditions,WindDirDegrees,DateUTC
4:50 AM,71.6,66.2,83,29.80,6.2,Variable,4.6,-,N/A,,Partly Cloudy,0,2012-10-09 01:50:00
5:50 AM,69.8,64.4,83,29.80,6.2,Variable,4.6,-,N/A,,Partly Cloudy,0,2012-10-09 02:50:00
6:50 AM,68.0,62.6,83,29.80,6.2,WNW,5.8,-,N/A,,Scattered Clouds,290,2012-10-09 03:50:00
7:50 AM,69.8,66.2,88,29.83,6.2,NW,5.8,-,N/A,,Scattered Clouds,320,2012-10-09 04:50:00
8:50 AM,75.2,64.4,69,29.83,-9999.0,WNW,4.6,-,N/A,,Clear,290,2012-10-09 05:50:00
9:20 AM,77.0,62.6,61,29.83,-9999.0,WNW,5.8,-,N/A,,Clear,290,2012-10-09 06:20:00
9:50 AM,77.0,64.4,65,29.83,-9999.0,West,6.9,-,N/A,,Clear,260,2012-10-09 06:50:00
10:20 AM,77.0,64.4,65,29.83,-9999.0,West,6.9,-,N/A,,Clear,260,2012-10-09 07:20:00
11:50 AM,78.8,64.4,61,29.83,6.2,WSW,8.1,-,N/A,,Scattered Clouds,250,2012-10-09 08:50:00
12:50 PM,78.8,64.4,61,29.83,6.2,West,10.4,-,N/A,,Partly Cloudy,260,2012-10-09 09:50:00
1:20 PM,78.8,64.4,61,29.83,6.2,West,10.4,-,N/A,,Partly Cloudy,260,2012-10-09 10:20:00
1:50 PM,78.8,64.4,61,29.83,6.2,WSW,9.2,-,N/A,,Partly Cloudy,250,2012-10-09 10:50:00
2:20 PM,78.8,62.6,57,29.80,6.2,West,9.2,-,N/A,,Partly Cloudy,260,2012-10-09 11:20:00
2:50 PM,80.6,60.8,51,29.80,6.2,WNW,9.2,-,N/A,,Partly Cloudy,290,2012-10-09 11:50:00
3:50 PM,78.8,60.8,54,29.80,6.2,WSW,10.4,-,N/A,,Partly Cloudy,250,2012-10-09 12:50:00
4:50 PM,78.8,62.6,57,29.80,6.2,WSW,8.1,-,N/A,,Partly Cloudy,240,2012-10-09 13:50:00
5:20 PM,78.8,64.4,61,29.80,6.2,West,6.9,-,N/A,,Scattered Clouds,260,2012-10-09 14:20:00
5:50 PM,77.0,64.4,65,29.80,6.2,WSW,8.1,-,N/A,,Scattered Clouds,250,2012-10-09 14:50:00
6:50 PM,73.4,60.8,65,29.80,6.2,WNW,5.8,-,N/A,,Scattered Clouds,290,2012-10-09 15:50:00
7:20 PM,73.4,62.6,69,29.80,6.2,WNW,3.5,-,N/A,,Scattered Clouds,300,2012-10-09 16:20:00
8:50 PM,71.6,60.8,69,29.80,6.2,Calm,Calm,-,N/A,,Scattered Clouds,0,2012-10-09 17:50:00
9:50 PM,71.6,60.8,69,29.80,6.2,Calm,Calm,-,N/A,,Scattered Clouds,0,2012-10-09 18:50:00